Regional Weather Roundup
Issued by NWS

Home | Current Version | Previous Version | Graphics & Text | Print | Product List | Glossary Off
Versions: 1 2 3 4 5 6 7 8 9 10 11 12 13 14 15 16 17 18 19 20 21 22 23 24 25 26 27 28 29 30 31 32 33 34 35 36 37 38 39 40 41 42 43 44 45 46 47 48 49 50

000
ASUS43 KTOP 262208
RWRKS

WEATHER ROUNDUP FOR KANSAS
NATIONAL WEATHER SERVICE GOODLAND KS
500 PM CDT TUE AUG 26 2014

NOTE:  "FAIR" INDICATES FEW OR NO CLOUDS BELOW 12,000 FEET WITH NO
SIGNIFICANT WEATHER AND/OR OBSTRUCTIONS TO VISIBILITY.

KSZ001>006-013>018-027>032-041>047-262300-
NORTHWEST KANSAS

CITY           SKY/WX    TMP DP  RH WIND       PRES   REMARKS
GOODLAND       MOSUNNY   84  60  44 SE14G21   30.11F
HAYS           SUNNY     88  63  42 S12       30.06F
HILL CITY      SUNNY     89  61  38 SE12      30.06F
RUSSELL        SUNNY     87  65  47 S8        30.05F
$$

KSZ061>065-074>080-084>089-262300-
SOUTHWEST KANSAS

CITY           SKY/WX    TMP DP  RH WIND       PRES   REMARKS
DODGE CITY     MOSUNNY   85  62  46 SE13      30.07F
ELKHART          N/A     83  60  45 NE12        N/A
GARDEN CITY    SUNNY     89  59  36 SE13      30.06F
GREAT BEND     SUNNY     88  66  48 S10       30.05F
LIBERAL        MOSUNNY   93  57  29 SE18      30.05F
PRATT          MOSUNNY   88  64  45 E7        30.07F
$$

KSZ066>073-081>083-090>101-262300-
SOUTHEAST KANSAS

CITY           SKY/WX    TMP DP  RH WIND       PRES   REMARKS
CHANUTE        PTSUNNY   98  63  31 S3G17     30.01F HX 100
COFFEYVILLE    MOSUNNY   96  65  35 SE8       29.99F HX  98
HUTCHINSON     PTSUNNY   87  71  58 N5        30.05F
MEDICINE LODGE   N/A     91  59  33 W3        30.02S
NEWTON         CLOUDY    84  64  51 N14G20    30.08F
PARSONS        MOSUNNY   98  65  33 VRB3      30.01F HX 101
WICHITA INTL   CLOUDY    91  65  41 SE7       30.03R
WICHITA JABRA  PTSUNNY   91  63  39 S6        30.02F
WICHITA MCCONL MOSUNNY   90  66  43 S7        30.03S
WINFIELD       MOSUNNY   96  64  34 SE10      30.02F HX  98
$$

KSZ007>012-019>026-033>040-048>060-102>105-262300-
NORTHEAST KANSAS

CITY           SKY/WX    TMP DP  RH WIND       PRES   REMARKS
CONCORDIA      SUNNY     86  71  60 E3        30.06F
EMPORIA        SUNNY     93  63  36 S7        30.03F
LAWRENCE       SUNNY     96  72  45 E10       30.03F HX 104
MANHATTAN      MOSUNNY   90  69  50 W5        30.03F
MARYSVILLE     MOSUNNY   88  68  51 CALM      30.06F
OLATHE IND     SUNNY     93  68  43 MISG      30.05F HX  97
OLATHE EXE     SUNNY     90  70  51 SE9       30.04F HX  95
SALINA         MOSUNNY   88  64  44 SE13      30.05F
TOPEKA BILLARD SUNNY     92  72  51 NE10      30.03F HX  99
TOPEKA FORBES  SUNNY     94  66  39 VRB5      30.03F HX  97
$$


USA.gov is the U.S. government's official web portal to all federal, state and local government web resources and services.